DW2806 Weather Reports


time (UTC)temp
C
wind
direction
speed
KPH
gust
KPH
rain 1hr
cm
rain 24hr
cm
rain mn
cm
humidity
%
barometer
mb
20260504044559 2 33 0.0 0.0 0.00 0.00 0.00 85 1025.7
20260504043108 2 33 0.0 0.0 0.00 0.00 0.00 84 1025.7
20260504041556 2 33 0.0 0.0 0.00 0.00 0.00 84 1025.7
20260504040059 2 33 0.0 0.0 0.00 0.00 0.00 83 1025.7
20260504034557 2 33 0.0 0.0 0.00 0.00 0.00 81 1025.7
20260504033057 2 33 0.0 0.0 0.00 0.00 0.00 81 1025.7
20260504031557 2 33 0.0 0.0 0.00 0.00 0.00 78 1025.7
20260504030049 3 33 0.0 0.0 0.00 0.00 0.00 78 1025.7
20260504024548 3 33 0.0 0.0 0.00 0.00 0.00 76 1025.7
20260504023046 3 33 0.0 0.0 0.00 0.00 0.00 75 1025.7
20260504021544 4 33 0.0 0.0 0.00 0.00 0.00 73 1025.7
20260504020040 4 33 0.0 0.0 0.00 0.00 0.00 72 1025.7
20260504014550 5 33 0.0 0.0 0.00 0.00 0.00 68 1025.7
20260504013040 5 33 0.0 0.0 0.00 0.00 0.00 67 1025.7
20260504011531 6 33 0.0 0.0 0.00 0.00 0.00 64 1025.7
20260504010031 7 33 0.0 0.0 0.00 0.00 0.00 59 1025.7
20260504004531 7 33 0.0 0.0 0.00 0.00 0.00 57 1025.7
20260504003031 8 33 0.0 0.0 0.00 0.00 0.00 55 1025.7
20260504001530 8 33 0.0 0.0 0.00 0.00 0.00 53 1025.7
20260504000040 9 33 0.0 0.0 0.00 0.00 0.00 51 1025.7
20260503234529 10 33 0.0 8.0 0.00 0.00 0.00 48 1025.7
20260503233029 10 33 0.0 6.4 0.00 0.00 0.00 45 1025.7
20260503231528 10 79 1.6 9.7 0.00 0.00 0.00 45 1025.7
20260503230033 11 68 0.0 9.7 0.00 0.00 0.00 44 1025.7
20260503224535 11 45 3.2 9.7 0.00 0.00 0.00 44 1025.7
20260503223026 11 88 0.0 14.5 0.00 0.00 0.00 44 1025.7
20260503221525 11 64 1.6 12.9 0.00 0.00 0.00 44 1025.7
20260503220027 11 70 1.6 9.7 0.00 0.00 0.00 44 1025.7
20260503214531 11 48 1.6 8.0 0.00 0.00 0.00 44 1025.7
20260503213029 11 34 4.8 12.9 0.00 0.00 0.00 43 1025.7
20260503211523 12 83 1.6 9.7 0.00 0.00 0.00 44 1025.7
20260503210039 12 37 4.8 9.7 0.00 0.00 0.00 43 1025.7
20260503204524 12 75 3.2 11.3 0.00 0.00 0.00 44 1025.7
20260503203023 12 83 3.2 12.9 0.00 0.00 0.00 45 1025.7
20260503201527 12 66 0.0 11.3 0.00 0.00 0.00 47 1025.7
20260503200021 12 51 3.2 12.9 0.00 0.00 0.00 47 1025.7
20260503194519 12 46 0.0 11.3 0.00 0.00 0.00 48 1025.7
20260503193018 12 38 0.0 11.3 0.00 0.00 0.00 49 1025.7
20260503191518 12 50 4.8 12.9 0.00 0.00 0.00 46 1025.7
20260503190016 12 52 0.0 8.0 0.00 0.00 0.00 50 1025.7
20260503184515 11 48 0.0 16.1 0.00 0.00 0.00 55 1025.7
20260503183008 11 72 4.8 19.3 0.00 0.00 0.00 53 1025.7
20260503181506 11 93 6.4 16.1 0.00 0.00 0.00 56 1025.7
20260503180005 10 73 4.8 11.3 0.00 0.00 0.00 60 1025.7
20260503174504 11 40 0.0 9.7 0.00 0.00 0.00 60 1025.7
20260503173001 10 77 0.0 6.4 0.00 0.00 0.00 65 1025.7
20260503171558 10 88 0.0 8.0 0.00 0.00 0.00 66 1025.7
20260503110125 6 37 0.0 0.0 0.00 0.00 0.00 86 1025.7
20260503081516 6 37 0.0 3.2 0.00 0.00 0.00 88 1025.7
20260503071510 7 37 0.0 3.2 0.00 0.00 0.00 87 1025.7
20260503060104 8 37 0.0 0.0 0.00 0.00 0.00 89 1025.7
20260503054558 8 37 0.0 0.0 0.00 0.00 0.00 90 1025.7
20260503053055 8 37 0.0 0.0 0.00 0.00 0.00 91 1025.7
20260503051554 8 37 0.0 0.0 0.00 0.00 0.00 91 1025.7
20260503050052 8 37 0.0 0.0 0.00 0.00 0.00 91 1025.7